Flag for Poland Weather past 2 weeks in Katowice, Poland

Now
25 °F

Ice fog.


Feels Like: 20 °F
Forecast: 23 / 34 °F
Wind: 3 mph from South

Location: Katowice Airport

Current Time: Jan 26, 2015 at 7:57:21 PM

Latest Report: Jan 26, 2015 at 7:30 PM


Visibility: 2 mi

Pressure: 30.09 "Hg

Humidity: 93%

Dew point: 23 °F

Location of KatowiceLocation

Historic Weather in Katowice — Graph

°F

Katowice temperature yesterday

Maximum temperature yesterday: 30 °F (at 10:00 PM)
Minimum temperature yesterday: 27 °F (at 3:00 AM)
Average temperature yesterday: 28 °F

Past Weeks' High & Low Weather Summary

 TemperatureHumidityPressure
High52 °F (Jan 16, 1:30 PM)100% (Jan 12, 10:00 AM)30.24 "Hg (Jan 12, 10:00 AM)
Low27 °F (Jan 25, 3:00 AM)32% (Jan 13, 6:00 PM)29.71 "Hg (Jan 17, 5:00 AM)
Average36 °F86%29.98 "Hg
* Reported Jan 11 6:00 PM — Jan 26 6:30 PM, Katowice, Weather by CustomWeather, © 2014

Note: Actual official high and low records may vary slightly from our data, if they occured in-between our weather recording intervals... More about our weather records

Advertising

Katowice weather history for previous 24 hours

 ConditionsComfort  
Time TempWeatherWind HumidityBarometerVisibility
6:30 PM
Jan 26
28 °FIce fog.3 mph86%30.12 "Hg2 mi
6:00 PM28 °FIce fog.3 mph86%30.12 "Hg2 mi
5:30 PM30 °FIce fog.3 mph86%30.15 "Hg2 mi
5:00 PM30 °FIce fog.3 mph86%30.15 "Hg3 mi
4:30 PM30 °FPassing clouds.2 mph86%30.15 "Hg4 mi
4:00 PM30 °FPartly sunny.5 mph86%30.15 "Hg5 mi
3:30 PM32 °FPartly sunny.5 mph80%30.15 "HgN/A
3:00 PM30 °FPartly sunny.5 mph86%30.18 "HgN/A
2:30 PM30 °FPartly sunny.6 mph86%30.18 "HgN/A
2:00 PM30 °FBroken clouds.8 mph86%30.18 "HgN/A
1:30 PM32 °FBroken clouds.8 mph87%30.18 "HgN/A
1:00 PM32 °FBroken clouds.6 mph87%30.21 "Hg5 mi
12:30 PM32 °FBroken clouds.5 mph87%30.21 "Hg5 mi
12:00 PM32 °FBroken clouds.5 mph87%30.21 "Hg5 mi
11:30 AM32 °FBroken clouds.3 mph87%30.21 "Hg5 mi
11:00 AM30 °FPartly sunny.3 mph93%30.24 "Hg5 mi
10:30 AM30 °FBroken clouds.3 mph93%30.24 "Hg4 mi
10:00 AM30 °FBroken clouds.5 mph93%30.24 "Hg4 mi
9:30 AM30 °FIce fog.3 mph93%30.24 "Hg2 mi
9:00 AM30 °FIce fog.3 mph93%30.24 "Hg2 mi
8:30 AM30 °FIce fog.3 mph93%30.24 "Hg3 mi
8:00 AM30 °FIce fog.5 mph93%30.24 "Hg2 mi
7:30 AM30 °FIce fog.5 mph93%30.24 "Hg2 mi
7:00 AM30 °FLight snow. Ice fog.6 mph93%30.24 "Hg3 mi
6:30 AM30 °FLight snow. Ice fog.6 mph93%30.24 "Hg3 mi
6:00 AM30 °FLight snow. Ice fog.5 mph93%30.24 "Hg3 mi
5:30 AM30 °FLight snow. Ice fog.5 mph93%30.21 "Hg3 mi
5:00 AM30 °FLight snow. Ice fog.5 mph100%30.21 "Hg3 mi
4:30 AM30 °FLight snow. Ice fog.6 mph100%30.21 "Hg3 mi
4:00 AM30 °FLight snow. Ice fog.8 mph100%30.21 "Hg2 mi
3:30 AM30 °FLight snow. Ice fog.9 mph100%30.21 "Hg2 mi
3:00 AM30 °FLight snow. Ice fog.9 mph100%30.21 "Hg2 mi
2:30 AM30 °FLight snow. Ice fog.9 mph100%30.21 "Hg2 mi
2:00 AM30 °FLight snow. Ice fog.9 mph100%30.21 "Hg2 mi
1:30 AM30 °FLight snow. Ice fog.8 mph100%30.21 "Hg2 mi
1:00 AM32 °FLight snow. Ice fog.7 mph93%30.18 "Hg1 mi
12:30 AM30 °FLight snow. Ice fog.7 mph100%30.18 "Hg1 mi
12:00 AM30 °FSnow flurries. Ice fog.5 mph100%30.18 "Hg1 mi
11:30 PM
Jan 25
30 °FSnow flurries. Ice fog.6 mph100%30.18 "Hg1 mi
11:00 PM30 °FLight snow. Ice fog.7 mph100%30.18 "Hg1 mi
10:30 PM30 °FLight snow. Ice fog.7 mph100%30.18 "Hg1 mi
10:00 PM30 °FLight snow. Ice fog.7 mph93%30.18 "Hg2 mi
9:30 PM28 °FLight snow. Ice fog.6 mph100%30.18 "Hg1 mi
9:00 PM28 °FLight snow. Ice fog.6 mph100%30.18 "Hg2 mi
8:30 PM28 °FLight snow. Ice fog.6 mph100%30.18 "Hg1 mi
8:00 PM28 °FLight snow. Ice fog.6 mph100%30.18 "Hg1 mi
7:30 PM28 °FLight snow. Ice fog.6 mph100%30.18 "Hg2 mi
7:00 PM28 °FLight snow. Ice fog.7 mph100%30.18 "Hg2 mi
Weather by CustomWeather, © 2014

See weather overviewHow to use our weather pages